BEIDOU 11 (C05)

Last updated on Jan. 24, 2021, 6:19 a.m. UTC

1 38091U 12008A   21023.93723811  .00000069  00000-0  00000-0 0  9999
2 38091   1.9485  71.5150 0003808 241.4248 206.6314  1.00270282 32721
UTC
Height (km)
Latitude
Longitude
Inclination
Orbital Period
UTC large
Height (km)
Speed (km/s)
/
Latitude / Longitude
Inclination (degrees)
Orbital Period (minutes)
Azimuth
Elevation
Range (km)
Doppler Factor
iOS Compass Heading
iOS Angle

Next 30 passes for location: Hong Kong

Rise time Rise Azimuth (degrees) Set time Set Azimuth (degrees) Duration Max altitude (degrees)

No matching passes for this satellites